Location: Newark
(44.2003°N, 3.2583°E)
Time: 07:31:20
(UTC+00:00)

STARLINK-1550 - Pass Details

Date: 26 September 2020
Orbit: 378 x 381 km, 53.0° (Epoch: 29 October)

Event Time Altitude Azimuth Distance (km) Brightness Sun altitude
Exits shadow 04:10:04 14° 329° (NNW) 1,171 5.1 -16.6°
Maximum altitude 04:12:03 25° 19° (NNE) 812 4.8 -16.3°
Drops below altitude 10° 04:14:43 10° 78° (ENE) 1,398 7.1 -15.8°
Sets 04:16:59 0° 92° (E) 2,249 8.3 -15.4°
